TimeMDT,TemperatureF,Dew PointF,Humidity,Sea Level PressureIn,VisibilityMPH,Wind Direction,Wind SpeedMPH,Gust SpeedMPH,PrecipitationIn,Events,Conditions,WindDirDegrees,DateUTC
12:12 AM,23.0,-2.2,33,30.27,10.0,South,13.8,-,N/A,,Clear,170,2013-04-25 06:12:00
12:32 AM,23.0,-0.4,36,30.26,10.0,South,19.6,-,N/A,,Clear,170,2013-04-25 06:32:00
12:52 AM,23.0,-0.4,36,30.26,10.0,South,18.4,-,N/A,,Clear,180,2013-04-25 06:52:00
1:12 AM,23.0,-0.4,36,30.25,10.0,South,23.0,-,N/A,,Clear,170,2013-04-25 07:12:00
1:32 AM,24.8,-0.4,34,30.25,10.0,South,20.7,-,N/A,,Clear,180,2013-04-25 07:32:00
1:52 AM,24.8,1.4,36,30.25,10.0,South,17.3,-,N/A,,Clear,180,2013-04-25 07:52:00
2:12 AM,24.8,1.4,36,30.24,10.0,South,20.7,119.7,N/A,,Clear,180,2013-04-25 08:12:00
2:32 AM,24.8,1.4,36,30.24,10.0,South,17.3,-,N/A,,Clear,190,2013-04-25 08:32:00
2:52 AM,24.8,1.4,36,30.23,10.0,South,16.1,-,N/A,,Clear,190,2013-04-25 08:52:00
3:12 AM,24.8,-0.4,34,30.23,10.0,South,13.8,-,N/A,,Clear,190,2013-04-25 09:12:00
3:32 AM,24.8,-0.4,34,30.22,10.0,South,17.3,-,N/A,,Clear,180,2013-04-25 09:32:00
3:52 AM,26.6,-4.0,26,30.23,10.0,SSW,13.8,-,N/A,,Clear,200,2013-04-25 09:52:00
4:12 AM,24.8,-4.0,28,30.22,10.0,South,11.5,-,N/A,,Clear,180,2013-04-25 10:12:00
4:32 AM,24.8,-4.0,28,30.22,10.0,South,15.0,-,N/A,,Clear,190,2013-04-25 10:32:00
4:52 AM,24.8,-4.0,28,30.22,10.0,SSW,8.1,19.6,N/A,,Clear,210,2013-04-25 10:52:00
5:12 AM,24.8,-5.8,26,30.21,10.0,WSW,11.5,-,N/A,,Clear,240,2013-04-25 11:12:00
5:32 AM,24.8,-5.8,26,30.22,10.0,SW,10.4,18.4,N/A,,Clear,230,2013-04-25 11:32:00
5:52 AM,26.6,-5.8,24,30.22,10.0,SSW,6.9,-,N/A,,Clear,210,2013-04-25 11:52:00
6:12 AM,26.6,-5.8,24,30.22,10.0,SW,15.0,21.9,N/A,,Clear,230,2013-04-25 12:12:00
6:32 AM,28.4,-5.8,23,30.22,10.0,SSW,13.8,19.6,N/A,,Clear,210,2013-04-25 12:32:00
6:52 AM,28.4,-5.8,23,30.22,7.0,SW,15.0,27.6,N/A,,Clear,220,2013-04-25 12:52:00
7:12 AM,28.4,-4.0,25,30.22,5.0,SW,15.0,26.5,N/A,,Haze,220,2013-04-25 13:12:00
7:32 AM,30.2,-4.0,23,30.22,3.0,SSW,15.0,24.2,N/A,,Haze,210,2013-04-25 13:32:00
7:52 AM,30.2,-4.0,23,30.23,7.0,SW,16.1,24.2,N/A,,Clear,220,2013-04-25 13:52:00
8:12 AM,30.2,-4.0,23,30.23,10.0,SSW,12.7,19.6,N/A,,Clear,210,2013-04-25 14:12:00
8:32 AM,32.0,-2.2,23,30.23,7.0,SSW,12.7,19.6,N/A,,Clear,200,2013-04-25 14:32:00
8:52 AM,32.0,1.4,27,30.24,5.0,SW,15.0,26.5,N/A,,Haze,220,2013-04-25 14:52:00
9:12 AM,32.0,3.2,30,30.23,7.0,SW,16.1,20.7,N/A,,Scattered Clouds,230,2013-04-25 15:12:00
9:32 AM,32.0,3.2,30,30.23,10.0,WSW,15.0,20.7,N/A,,Clear,250,2013-04-25 15:32:00
9:52 AM,32.0,5.0,32,30.23,7.0,WSW,17.3,21.9,0.01,,Clear,240,2013-04-25 15:52:00
10:12 AM,33.8,8.6,35,30.24,5.0,WSW,20.7,28.8,N/A,,Haze,250,2013-04-25 16:12:00
10:32 AM,33.8,8.6,35,30.23,5.0,WSW,20.7,29.9,N/A,,Haze,240,2013-04-25 16:32:00
10:52 AM,33.8,6.8,32,30.24,7.0,SW,11.5,20.7,0.01,,Clear,230,2013-04-25 16:52:00
11:12 AM,35.6,8.6,33,30.24,10.0,SW,10.4,18.4,0.05,,Scattered Clouds,220,2013-04-25 17:12:00
11:32 AM,35.6,8.6,33,30.24,10.0,SW,9.2,20.7,0.05,,Scattered Clouds,230,2013-04-25 17:32:00
11:52 AM,35.6,8.6,33,30.24,10.0,SW,11.5,23.0,0.06,,Scattered Clouds,230,2013-04-25 17:52:00
12:12 PM,35.6,10.4,35,30.23,1.2,SW,19.6,36.8,N/A,,Haze,230,2013-04-25 18:12:00
12:32 PM,37.4,12.2,36,30.22,2.5,WSW,15.0,29.9,N/A,,Haze,250,2013-04-25 18:32:00
12:52 PM,37.4,10.4,33,30.21,7.0,WSW,17.3,23.0,N/A,,Scattered Clouds,240,2013-04-25 18:52:00
1:12 PM,37.4,10.4,33,30.21,7.0,WSW,15.0,20.7,N/A,,Mostly Cloudy,250,2013-04-25 19:12:00
1:32 PM,37.4,12.2,36,30.21,7.0,SSW,12.7,24.2,N/A,,Mostly Cloudy,210,2013-04-25 19:32:00
1:52 PM,37.4,10.4,33,30.21,10.0,WSW,11.5,20.7,N/A,,Mostly Cloudy,240,2013-04-25 19:52:00
2:12 PM,37.4,10.4,33,30.20,2.0,West,18.4,31.1,N/A,Snow,Light Snow,260,2013-04-25 20:12:00
2:32 PM,37.4,10.4,33,30.20,7.0,WSW,18.4,23.0,N/A,,Overcast,240,2013-04-25 20:32:00
2:52 PM,37.4,14.0,38,30.19,5.0,WSW,17.3,28.8,N/A,,Haze,240,2013-04-25 20:52:00
3:12 PM,37.4,14.0,38,30.19,7.0,SW,13.8,25.3,N/A,,Overcast,220,2013-04-25 21:12:00
3:32 PM,37.4,14.0,38,30.18,5.0,WSW,18.4,24.2,N/A,,Haze,240,2013-04-25 21:32:00
3:52 PM,37.4,14.0,38,30.17,3.0,WSW,20.7,29.9,N/A,,Haze,250,2013-04-25 21:52:00
4:12 PM,37.4,10.4,33,30.17,2.0,SW,11.5,26.5,N/A,Snow,Light Snow,220,2013-04-25 22:12:00
4:32 PM,37.4,10.4,33,30.16,2.0,West,27.6,35.7,N/A,,Haze,260,2013-04-25 22:32:00
4:52 PM,37.4,8.6,30,30.17,2.5,West,19.6,39.1,N/A,,Mostly Cloudy,260,2013-04-25 22:52:00
5:12 PM,37.4,6.8,28,30.18,0.8,WSW,17.3,39.1,0.01,Snow,Light Snow,240,2013-04-25 23:12:00
5:32 PM,41.0,6.8,24,30.18,10.0,West,20.7,26.5,0.02,,Clear,270,2013-04-25 23:32:00
5:52 PM,37.4,8.6,30,30.18,1.2,West,23.0,34.5,0.02,Snow,Light Snow,270,2013-04-25 23:52:00
6:12 PM,37.4,6.8,28,30.18,10.0,West,21.9,32.2,N/A,,Mostly Cloudy,280,2013-04-26 00:12:00
6:32 PM,37.4,8.6,30,30.18,10.0,WNW,18.4,23.0,N/A,,Scattered Clouds,290,2013-04-26 00:32:00
6:52 PM,37.4,8.6,30,30.18,10.0,West,15.0,24.2,N/A,,Clear,280,2013-04-26 00:52:00
7:12 PM,37.4,10.4,33,30.18,10.0,WNW,19.6,25.3,N/A,,Clear,290,2013-04-26 01:12:00
7:13 PM,37.4,10.4,33,30.17,10.0,West,18.4,25.3,N/A,,Clear,280,2013-04-26 01:13:00
8:32 PM,33.8,8.6,35,30.19,10.0,West,21.9,27.6,N/A,,Clear,270,2013-04-26 02:32:00
8:52 PM,33.8,6.8,32,30.21,10.0,West,21.9,-,N/A,,Clear,270,2013-04-26 02:52:00
9:12 PM,33.8,8.6,35,30.22,10.0,West,15.0,-,N/A,,Clear,260,2013-04-26 03:12:00
9:32 PM,33.8,8.6,35,30.23,10.0,West,12.7,-,N/A,,Mostly Cloudy,270,2013-04-26 03:32:00
9:52 PM,33.8,8.6,35,30.24,10.0,West,13.8,-,N/A,,Overcast,260,2013-04-26 03:52:00
10:12 PM,33.8,8.6,35,30.23,10.0,West,13.8,-,N/A,,Overcast,260,2013-04-26 04:12:00
10:32 PM,33.8,8.6,35,30.24,10.0,West,12.7,-,N/A,,Mostly Cloudy,270,2013-04-26 04:32:00
10:52 PM,33.8,8.6,35,30.24,10.0,West,13.8,-,N/A,,Mostly Cloudy,270,2013-04-26 04:52:00
11:12 PM,32.0,8.6,38,30.23,10.0,West,15.0,-,N/A,,Mostly Cloudy,260,2013-04-26 05:12:00
11:32 PM,32.0,10.4,41,30.24,10.0,West,11.5,-,N/A,,Clear,280,2013-04-26 05:32:00
11:52 PM,32.0,10.4,41,30.24,10.0,West,8.1,-,N/A,,Clear,280,2013-04-26 05:52:00